Time,TemperatureF,DewpointF,PressureIn,WindDirection,WindDirectionDegrees,WindSpeedMPH,WindSpeedGustMPH,Humidity,HourlyPrecipIn,Conditions,Clouds,dailyrainin,SoftwareType,DateUTC
2013-02-23 00:00:00,34.1,27.0,30.06,South,186,9.0,-999.0,74,-99.99,,,0.00,weatherlink.com 1.10,2013-02-23 05:00:00,
2013-02-23 00:15:00,34.2,27.0,30.07,SW,215,11.0,-999.0,75,-99.99,,,0.00,weatherlink.com 1.10,2013-02-23 05:15:00,
2013-02-23 00:30:00,34.1,27.0,30.06,SW,230,9.0,-999.0,75,-99.99,,,0.00,weatherlink.com 1.10,2013-02-23 05:30:00,
2013-02-23 00:45:00,34.2,27.0,30.07,SW,220,7.0,-999.0,75,-99.99,,,0.00,weatherlink.com 1.10,2013-02-23 05:45:00,
2013-02-23 01:00:00,34.2,27.0,30.06,SW,229,9.0,-999.0,74,-99.99,,,0.00,weatherlink.com 1.10,2013-02-23 06:00:00,
2013-02-23 01:15:00,34.3,27.0,30.06,South,184,8.0,-999.0,74,-99.99,,,0.00,weatherlink.com 1.10,2013-02-23 06:15:00,
2013-02-23 01:30:00,34.4,27.0,30.07,WSW,244,7.0,-999.0,73,-99.99,,,0.00,weatherlink.com 1.10,2013-02-23 06:30:00,
2013-02-23 01:45:00,34.4,27.0,30.06,SW,228,9.0,-999.0,73,-99.99,,,0.00,weatherlink.com 1.10,2013-02-23 06:45:00,
2013-02-23 02:00:00,34.5,27.0,30.06,WSW,244,8.0,-999.0,73,-99.99,,,0.00,weatherlink.com 1.10,2013-02-23 07:00:00,
2013-02-23 02:15:00,34.5,27.0,30.05,SW,218,8.0,-999.0,73,-99.99,,,0.00,weatherlink.com 1.10,2013-02-23 07:15:00,
2013-02-23 02:30:00,34.5,27.0,30.04,SW,229,10.0,-999.0,73,-99.99,,,0.00,weatherlink.com 1.10,2013-02-23 07:30:00,
2013-02-23 02:45:00,34.4,27.0,30.03,SSW,192,10.0,-999.0,74,-99.99,,,0.00,weatherlink.com 1.10,2013-02-23 07:45:00,
2013-02-23 03:00:00,34.4,27.0,30.04,SSW,193,6.0,-999.0,75,-99.99,,,0.00,weatherlink.com 1.10,2013-02-23 08:00:00,
2013-02-23 03:15:00,34.5,27.0,30.03,SW,234,9.0,-999.0,74,-99.99,,,0.00,weatherlink.com 1.10,2013-02-23 08:15:00,
2013-02-23 03:30:00,34.4,27.0,30.03,South,182,8.0,-999.0,74,-99.99,,,0.00,weatherlink.com 1.10,2013-02-23 08:30:00,
2013-02-23 03:45:00,34.4,27.0,30.03,SW,216,5.0,-999.0,75,-99.99,,,0.00,weatherlink.com 1.10,2013-02-23 08:45:00,
2013-02-23 04:00:00,34.5,27.0,30.03,SSW,192,4.0,-999.0,75,-99.99,,,0.00,weatherlink.com 1.10,2013-02-23 09:00:00,
2013-02-23 04:30:00,34.4,28.0,30.02,South,180,3.0,-999.0,76,-99.99,,,0.00,weatherlink.com 1.10,2013-02-23 09:30:00,
2013-02-23 04:45:00,34.5,28.0,30.02,SSW,208,2.0,-999.0,77,-99.99,,,0.00,weatherlink.com 1.10,2013-02-23 09:45:00,
2013-02-23 05:00:00,34.4,28.0,30.02,SSW,209,6.0,-999.0,77,-99.99,,,0.00,weatherlink.com 1.10,2013-02-23 10:00:00,
2013-02-23 05:15:00,34.3,28.0,30.02,SW,229,7.0,-999.0,79,-99.99,,,0.00,weatherlink.com 1.10,2013-02-23 10:15:00,
2013-02-23 05:30:00,34.1,29.0,30.02,SW,229,5.0,-999.0,81,-99.99,,,0.00,weatherlink.com 1.10,2013-02-23 10:30:00,
2013-02-23 05:45:00,34.0,29.0,30.01,South,178,12.0,-999.0,82,-99.99,,,0.00,weatherlink.com 1.10,2013-02-23 10:45:00,
2013-02-23 06:00:00,33.6,30.0,30.00,South,189,4.0,-999.0,86,-99.99,,,0.00,weatherlink.com 1.10,2013-02-23 11:00:00,
2013-02-23 06:15:00,33.6,30.0,30.01,SSW,211,4.0,-999.0,87,-99.99,,,0.00,weatherlink.com 1.10,2013-02-23 11:15:00,
2013-02-23 06:30:00,33.6,30.0,30.01,SSW,213,0.0,-999.0,87,-99.99,,,0.00,weatherlink.com 1.10,2013-02-23 11:30:00,
2013-02-23 07:00:00,34.1,30.0,30.00,SW,217,2.0,-999.0,86,-99.99,,,0.00,weatherlink.com 1.10,2013-02-23 12:00:00,
2013-02-23 07:15:00,34.3,30.0,30.00,SSW,200,10.0,-999.0,85,-99.99,,,0.00,weatherlink.com 1.10,2013-02-23 12:15:00,
2013-02-23 07:30:00,34.6,31.0,29.99,SW,215,8.0,-999.0,85,-99.99,,,0.00,weatherlink.com 1.10,2013-02-23 12:30:00,
2013-02-23 07:45:00,34.7,31.0,30.00,SW,234,5.0,-999.0,85,-99.99,,,0.00,weatherlink.com 1.10,2013-02-23 12:45:00,
2013-02-23 08:00:00,34.9,31.0,29.99,SW,225,4.0,-999.0,85,-99.99,,,0.00,weatherlink.com 1.10,2013-02-23 13:00:00,
2013-02-23 08:15:00,35.3,31.0,29.99,SW,226,10.0,-999.0,85,-99.99,,,0.00,weatherlink.com 1.10,2013-02-23 13:15:00,
2013-02-23 08:30:00,35.3,31.0,29.99,SW,234,12.0,-999.0,85,-99.99,,,0.00,weatherlink.com 1.10,2013-02-23 13:30:00,
2013-02-23 08:45:00,35.3,32.0,29.98,SW,222,8.0,-999.0,86,-99.99,,,0.00,weatherlink.com 1.10,2013-02-23 13:45:00,
2013-02-23 09:15:00,35.4,32.0,29.96,SSW,205,3.0,-999.0,88,-99.99,,,0.00,weatherlink.com 1.10,2013-02-23 14:15:00,
2013-02-23 09:30:00,35.8,33.0,29.96,SSW,210,5.0,-999.0,88,-99.99,,,0.00,weatherlink.com 1.10,2013-02-23 14:30:00,
2013-02-23 10:01:00,36.5,33.0,29.94,SW,221,6.0,-999.0,87,-99.99,,,0.00,weatherlink.com 1.10,2013-02-23 15:01:00,
2013-02-23 10:16:00,36.9,33.0,29.94,SW,232,0.0,-999.0,87,-99.99,,,0.00,weatherlink.com 1.10,2013-02-23 15:16:00,
2013-02-23 10:31:00,37.0,34.0,29.95,WNW,284,0.0,-999.0,87,-99.99,,,0.00,weatherlink.com 1.10,2013-02-23 15:31:00,
2013-02-23 10:46:00,36.8,33.0,29.95,West,273,2.0,-999.0,87,-99.99,,,0.00,weatherlink.com 1.10,2013-02-23 15:46:00,
2013-02-23 11:01:00,36.5,33.0,29.95,WSW,249,2.0,-999.0,88,-99.99,,,0.00,weatherlink.com 1.10,2013-02-23 16:01:00,
2013-02-23 11:16:00,36.3,33.0,29.95,SW,234,5.0,-999.0,89,-99.99,,,0.00,weatherlink.com 1.10,2013-02-23 16:16:00,
2013-02-23 11:31:00,36.7,34.0,29.95,SW,227,5.0,-999.0,89,-99.99,,,0.00,weatherlink.com 1.10,2013-02-23 16:31:00,
2013-02-23 11:46:00,36.9,34.0,29.95,SW,215,3.0,-999.0,88,-99.99,,,0.00,weatherlink.com 1.10,2013-02-23 16:46:00,
2013-02-23 12:01:00,37.0,34.0,29.94,SW,236,5.0,-999.0,89,-99.99,,,0.00,weatherlink.com 1.10,2013-02-23 17:01:00,
2013-02-23 12:16:00,37.5,35.0,29.93,SW,230,8.0,-999.0,89,-99.99,,,0.00,weatherlink.com 1.10,2013-02-23 17:16:00,
2013-02-23 12:31:00,38.0,35.0,29.93,WSW,243,4.0,-999.0,87,-99.99,,,0.00,weatherlink.com 1.10,2013-02-23 17:31:00,
2013-02-23 12:46:00,38.1,35.0,29.92,SSW,209,2.0,-999.0,87,-99.99,,,0.00,weatherlink.com 1.10,2013-02-23 17:46:00,
2013-02-23 13:01:00,38.3,35.0,29.91,SW,227,4.0,-999.0,86,-99.99,,,0.00,weatherlink.com 1.10,2013-02-23 18:01:00,
2013-02-23 13:16:00,38.5,35.0,29.91,SSW,201,2.0,-999.0,86,-99.99,,,0.00,weatherlink.com 1.10,2013-02-23 18:16:00,
2013-02-23 14:01:00,38.8,35.0,29.89,SW,226,5.0,-999.0,85,-99.99,,,0.00,weatherlink.com 1.10,2013-02-23 19:01:00,
2013-02-23 14:16:00,38.9,35.0,29.89,SSW,213,7.0,-999.0,85,-99.99,,,0.00,weatherlink.com 1.10,2013-02-23 19:16:00,
2013-02-23 14:31:00,38.9,35.0,29.89,SW,220,4.0,-999.0,86,-99.99,,,0.00,weatherlink.com 1.10,2013-02-23 19:31:00,
2013-02-23 14:46:00,38.8,35.0,29.89,WSW,248,5.0,-999.0,86,-99.99,,,0.00,weatherlink.com 1.10,2013-02-23 19:46:00,
2013-02-23 15:01:00,38.7,35.0,29.89,SSW,211,4.0,-999.0,87,-99.99,,,0.00,weatherlink.com 1.10,2013-02-23 20:01:00,
2013-02-23 15:16:00,38.7,35.0,29.88,South,190,2.0,-999.0,87,-99.99,,,0.00,weatherlink.com 1.10,2013-02-23 20:16:00,
2013-02-23 15:31:00,38.8,35.0,29.87,SSW,213,3.0,-999.0,87,-99.99,,,0.00,weatherlink.com 1.10,2013-02-23 20:31:00,
2013-02-23 15:46:00,38.8,37.0,29.88,SW,226,0.0,-999.0,92,-99.99,,,0.00,weatherlink.com 1.10,2013-02-23 20:46:00,
2013-02-23 16:01:00,38.8,35.0,29.87,SW,223,2.0,-999.0,87,-99.99,,,0.00,weatherlink.com 1.10,2013-02-23 21:01:00,
2013-02-23 16:16:00,38.8,35.0,29.86,South,185,2.0,-999.0,87,-99.99,,,0.00,weatherlink.com 1.10,2013-02-23 21:16:00,
2013-02-23 16:31:00,39.1,36.0,29.86,SW,221,2.0,-999.0,88,-99.99,,,0.00,weatherlink.com 1.10,2013-02-23 21:31:00,
2013-02-23 16:46:00,39.2,36.0,29.86,SW,236,3.0,-999.0,88,-99.99,,,0.00,weatherlink.com 1.10,2013-02-23 21:46:00,
2013-02-23 17:01:00,39.0,36.0,29.86,SW,215,0.0,-999.0,88,-99.99,,,0.00,weatherlink.com 1.10,2013-02-23 22:01:00,
2013-02-23 17:17:00,38.9,36.0,29.87,SW,233,2.0,-999.0,88,-99.99,,,0.00,weatherlink.com 1.10,2013-02-23 22:17:00,
2013-02-23 17:32:00,38.8,36.0,29.87,SW,233,0.0,-999.0,89,-99.99,,,0.00,weatherlink.com 1.10,2013-02-23 22:32:00,
2013-02-23 17:47:00,38.6,36.0,29.87,SW,233,3.0,-999.0,89,-99.99,,,0.00,weatherlink.com 1.10,2013-02-23 22:47:00,
2013-02-23 18:02:00,38.4,36.0,29.87,SW,232,0.0,-999.0,90,-99.99,,,0.00,weatherlink.com 1.10,2013-02-23 23:02:00,
2013-02-23 18:17:00,38.2,36.0,29.86,SW,232,0.0,-999.0,90,-99.99,,,0.00,weatherlink.com 1.10,2013-02-23 23:17:00,
2013-02-23 18:47:00,37.8,36.0,29.87,SW,232,3.0,-999.0,91,-99.99,,,0.00,weatherlink.com 1.10,2013-02-23 23:47:00,
2013-02-23 19:02:00,37.9,36.0,29.86,SW,232,0.0,-999.0,92,-99.99,,,0.00,weatherlink.com 1.10,2013-02-24 00:02:00,
2013-02-23 19:17:00,37.7,36.0,29.87,SW,232,0.0,-999.0,92,-99.99,,,0.00,weatherlink.com 1.10,2013-02-24 00:17:00,
2013-02-23 19:32:00,37.6,36.0,29.87,SW,232,0.0,-999.0,92,-99.99,,,0.00,weatherlink.com 1.10,2013-02-24 00:32:00,
2013-02-23 19:47:00,37.6,36.0,29.87,SW,232,0.0,-999.0,92,-99.99,,,0.00,weatherlink.com 1.10,2013-02-24 00:47:00,
2013-02-23 20:02:00,37.7,36.0,29.88,SW,232,0.0,-999.0,92,-99.99,,,0.00,weatherlink.com 1.10,2013-02-24 01:02:00,
2013-02-23 20:17:00,37.7,36.0,29.88,SW,232,0.0,-999.0,92,-99.99,,,0.00,weatherlink.com 1.10,2013-02-24 01:17:00,
2013-02-23 20:32:00,37.1,35.0,29.87,SW,232,0.0,-999.0,92,-99.99,,,0.00,weatherlink.com 1.10,2013-02-24 01:32:00,
2013-02-23 21:02:00,36.7,35.0,29.86,SW,232,0.0,-999.0,93,-99.99,,,0.00,weatherlink.com 1.10,2013-02-24 02:02:00,
2013-02-23 21:17:00,36.5,34.0,29.87,NE,41,1.0,-999.0,92,-99.99,,,0.00,weatherlink.com 1.10,2013-02-24 02:17:00,
2013-02-23 21:32:00,35.6,34.0,29.87,NNW,342,2.0,-999.0,93,-99.99,,,0.00,weatherlink.com 1.10,2013-02-24 02:32:00,
2013-02-23 21:47:00,35.0,33.0,29.88,North,5,0.0,-999.0,93,-99.99,,,0.00,weatherlink.com 1.10,2013-02-24 02:47:00,
2013-02-23 22:02:00,34.3,33.0,29.88,NNE,17,0.0,-999.0,93,-99.99,,,0.00,weatherlink.com 1.10,2013-02-24 03:02:00,
2013-02-23 22:17:00,34.1,32.0,29.88,NNE,19,2.0,-999.0,93,-99.99,,,0.00,weatherlink.com 1.10,2013-02-24 03:17:00,
2013-02-23 22:32:00,33.5,32.0,29.87,NNE,13,0.0,-999.0,92,-99.99,,,0.00,weatherlink.com 1.10,2013-02-24 03:32:00,
2013-02-23 22:47:00,33.3,31.0,29.86,NNE,18,3.0,-999.0,91,-99.99,,,0.00,weatherlink.com 1.10,2013-02-24 03:47:00,
2013-02-23 23:02:00,33.1,31.0,29.87,NW,311,0.0,-999.0,90,-99.99,,,0.00,weatherlink.com 1.10,2013-02-24 04:02:00,
2013-02-23 23:17:00,33.1,30.0,29.86,NW,311,0.0,-999.0,89,-99.99,,,0.00,weatherlink.com 1.10,2013-02-24 04:17:00,
2013-02-23 23:32:00,33.1,30.0,29.86,NW,323,0.0,-999.0,89,-99.99,,,0.00,weatherlink.com 1.10,2013-02-24 04:32:00,
2013-02-23 23:47:00,33.0,30.0,29.87,NW,324,0.0,-999.0,88,-99.99,,,0.01,weatherlink.com 1.10,2013-02-24 04:47:00,